Location: *
(46.1333°S, 161.2167°W)
Time: 03:55:48
(UTC+00:00)

Okean 1-7 Rocket - Pass Details

Date: 15 July 2020
Orbit: 615 x 650 km, 82.5° (Epoch: 10 August)

Event Time Altitude Azimuth Distance (km) Brightness Sun altitude
Rises 17:21:08 0° 350° (N) 2,897 7.1 -10.2°
Reaches altitude 10° 17:23:20 10° 349° (NNW) 2,003 6.3 -9.9°
Maximum altitude 17:27:47 80° 261° (W) 653 3.6 -9.2°
Drops below altitude 10° 17:32:21 10° 173° (S) 2,054 6.1 -8.4°
Sets 17:34:38 0° 171° (S) 2,977 6.9 -8.1°
